Year,Month,Day,Hour,Minute,Value (Times are PST for temperature in C)
2016,08,23,00,00,12.30
2016,08,23,00,01,12.30
2016,08,23,00,02,12.30
2016,08,23,00,03,12.30
2016,08,23,00,04,12.30
2016,08,23,00,05,12.30
2016,08,23,00,06,12.30
2016,08,23,00,07,12.30
2016,08,23,00,08,12.20
2016,08,23,00,09,12.20
2016,08,23,00,10,12.20
2016,08,23,00,11,12.20
2016,08,23,00,12,12.20
2016,08,23,00,13,12.20
2016,08,23,00,14,12.20
2016,08,23,00,15,12.20
2016,08,23,00,16,12.10
2016,08,23,00,17,12.10
2016,08,23,00,18,12.10
2016,08,23,00,19,12.10
2016,08,23,00,20,12.10
2016,08,23,00,21,12.10
2016,08,23,00,22,12.10
2016,08,23,00,23,12.10
2016,08,23,00,24,12.10
2016,08,23,00,25,12.10
2016,08,23,00,26,12.10
2016,08,23,00,27,12.10
2016,08,23,00,28,12.10
2016,08,23,00,29,12.10
2016,08,23,00,30,12.10
2016,08,23,00,31,12.10
2016,08,23,00,32,12.10
2016,08,23,00,33,12.10
2016,08,23,00,34,12.10
2016,08,23,00,35,12.10
2016,08,23,00,36,12.10
2016,08,23,00,37,12.10
2016,08,23,00,38,12.10
2016,08,23,00,39,12.10
2016,08,23,00,40,12.10
2016,08,23,00,41,12.10
2016,08,23,00,42,12.10
2016,08,23,00,43,12.20
2016,08,23,00,44,12.20
2016,08,23,00,45,12.20
2016,08,23,00,46,12.20
2016,08,23,00,47,12.20
2016,08,23,00,48,12.20
2016,08,23,00,49,12.20
2016,08,23,00,50,12.20
2016,08,23,00,51,12.20
2016,08,23,00,52,12.20
2016,08,23,00,53,12.20
2016,08,23,00,54,12.20
2016,08,23,00,55,12.20
2016,08,23,00,56,12.20
2016,08,23,00,57,12.20
2016,08,23,00,58,12.20
2016,08,23,00,59,12.20
2016,08,23,01,00,12.30
2016,08,23,01,01,12.30
2016,08,23,01,02,12.30
2016,08,23,01,03,12.30
2016,08,23,01,04,12.30
2016,08,23,01,05,12.40
2016,08,23,01,06,12.40
2016,08,23,01,07,12.40
2016,08,23,01,08,12.40
2016,08,23,01,09,12.40
2016,08,23,01,10,12.40
2016,08,23,01,11,12.40
2016,08,23,01,12,12.40
2016,08,23,01,13,12.40
2016,08,23,01,14,12.40
2016,08,23,01,15,12.40
2016,08,23,01,16,12.40
2016,08,23,01,17,12.40
2016,08,23,01,18,12.40
2016,08,23,01,19,12.40
2016,08,23,01,20,12.40
2016,08,23,01,21,12.40
2016,08,23,01,22,12.40
2016,08,23,01,23,12.40
2016,08,23,01,24,12.40
2016,08,23,01,25,12.40
2016,08,23,01,26,12.40
2016,08,23,01,27,12.40
2016,08,23,01,28,12.40
2016,08,23,01,29,12.40
2016,08,23,01,30,12.40
2016,08,23,01,31,12.30
2016,08,23,01,32,12.30
2016,08,23,01,33,12.30
2016,08,23,01,34,12.30
2016,08,23,01,35,12.30
2016,08,23,01,36,12.30
2016,08,23,01,37,12.30
2016,08,23,01,38,12.30
2016,08,23,01,39,12.30
2016,08,23,01,40,12.30
2016,08,23,01,41,12.30
2016,08,23,01,42,12.20
2016,08,23,01,43,12.20
2016,08,23,01,44,12.20
2016,08,23,01,45,12.20
2016,08,23,01,46,12.20
2016,08,23,01,47,12.20
2016,08,23,01,48,12.20
2016,08,23,01,49,12.20
2016,08,23,01,50,12.20
2016,08,23,01,51,12.20
2016,08,23,01,52,12.30
2016,08,23,01,53,12.40
2016,08,23,01,54,12.50
2016,08,23,01,55,12.60
2016,08,23,01,56,12.70
2016,08,23,01,57,12.80
2016,08,23,01,58,12.90
2016,08,23,01,59,12.90
2016,08,23,02,00,12.90
2016,08,23,02,01,13.00
2016,08,23,02,02,13.00
2016,08,23,02,03,13.10
2016,08,23,02,04,13.10
2016,08,23,02,05,13.20
2016,08,23,02,06,13.20
2016,08,23,02,07,13.30
2016,08,23,02,08,13.40
2016,08,23,02,09,13.40
2016,08,23,02,10,13.40
2016,08,23,02,11,13.50
2016,08,23,02,12,13.60
2016,08,23,02,13,13.60
2016,08,23,02,14,13.60
2016,08,23,02,15,13.70
2016,08,23,02,16,13.80
2016,08,23,02,17,13.80
2016,08,23,02,18,13.90
2016,08,23,02,19,13.90
2016,08,23,02,20,14.00
2016,08,23,02,21,14.10
2016,08,23,02,22,14.10
2016,08,23,02,23,14.20
2016,08,23,02,24,14.20
2016,08,23,02,25,14.20
2016,08,23,02,26,14.20
2016,08,23,02,27,14.30
2016,08,23,02,28,14.30
2016,08,23,02,29,14.30
2016,08,23,02,30,14.30
2016,08,23,02,31,14.40
2016,08,23,02,32,14.40
2016,08,23,02,33,14.30
2016,08,23,02,34,14.30
2016,08,23,02,35,14.30
2016,08,23,02,36,14.30
2016,08,23,02,37,14.30
2016,08,23,02,38,14.40
2016,08,23,02,39,14.40
2016,08,23,02,40,14.40
2016,08,23,02,41,14.40
2016,08,23,02,42,14.40
2016,08,23,02,43,14.40
2016,08,23,02,44,14.30
2016,08,23,02,45,14.30
2016,08,23,02,46,14.30
2016,08,23,02,47,14.30
2016,08,23,02,48,14.30
2016,08,23,02,49,14.20
2016,08,23,02,50,14.20
2016,08,23,02,51,14.20
2016,08,23,02,52,14.20
2016,08,23,02,53,14.20
2016,08,23,02,54,14.20
2016,08,23,02,55,14.20
2016,08,23,02,56,14.30
2016,08,23,02,57,14.30
2016,08,23,02,58,14.40
2016,08,23,02,59,14.50
2016,08,23,03,00,14.60
2016,08,23,03,01,14.70
2016,08,23,03,02,14.70
2016,08,23,03,03,14.80
2016,08,23,03,04,14.90
2016,08,23,03,05,14.90
2016,08,23,03,06,15.00
2016,08,23,03,07,15.10
2016,08,23,03,08,15.10
2016,08,23,03,09,15.10
2016,08,23,03,10,15.10
2016,08,23,03,11,15.10
2016,08,23,03,12,15.10
2016,08,23,03,13,15.10
2016,08,23,03,14,15.10
2016,08,23,03,15,15.10
2016,08,23,03,16,15.10
2016,08,23,03,17,15.10
2016,08,23,03,18,15.10
2016,08,23,03,19,15.10
2016,08,23,03,20,15.10
2016,08,23,03,21,15.10
2016,08,23,03,22,15.10
2016,08,23,03,23,15.10
2016,08,23,03,24,15.10
2016,08,23,03,25,15.20
2016,08,23,03,26,15.20
2016,08,23,03,27,15.20
2016,08,23,03,28,15.30
2016,08,23,03,29,15.30
2016,08,23,03,30,15.30
2016,08,23,03,31,15.30
2016,08,23,03,32,15.30
2016,08,23,03,33,15.40
2016,08,23,03,34,15.40
2016,08,23,03,35,15.40
2016,08,23,03,36,15.40
2016,08,23,03,37,15.40
2016,08,23,03,38,15.40
2016,08,23,03,39,15.40
2016,08,23,03,40,15.40
2016,08,23,03,41,15.40
2016,08,23,03,42,15.40
2016,08,23,03,43,15.40
2016,08,23,03,44,15.40
2016,08,23,03,45,15.40
2016,08,23,03,46,15.40
2016,08,23,03,47,15.40
2016,08,23,03,48,15.40
2016,08,23,03,49,15.40
2016,08,23,03,50,15.40
2016,08,23,03,51,15.40
2016,08,23,03,52,15.40
2016,08,23,03,53,15.40
2016,08,23,03,54,15.40
2016,08,23,03,55,15.40
2016,08,23,03,56,15.40
2016,08,23,03,57,15.40
2016,08,23,03,58,15.40
2016,08,23,03,59,15.50
2016,08,23,04,00,15.50
2016,08,23,04,01,15.50
2016,08,23,04,02,15.60
2016,08,23,04,03,15.60
2016,08,23,04,04,15.60
2016,08,23,04,05,15.60
2016,08,23,04,06,15.60
2016,08,23,04,07,15.60
2016,08,23,04,08,15.70
2016,08,23,04,09,15.60
2016,08,23,04,10,15.60
2016,08,23,04,11,15.60
2016,08,23,04,12,15.60
2016,08,23,04,13,15.60
2016,08,23,04,14,15.60
2016,08,23,04,15,15.60
2016,08,23,04,16,15.60
2016,08,23,04,17,15.60
2016,08,23,04,18,15.50
2016,08,23,04,19,15.50
2016,08,23,04,20,15.50
2016,08,23,04,21,15.50
2016,08,23,04,22,15.50
2016,08,23,04,23,15.50
2016,08,23,04,24,15.50
2016,08,23,04,25,15.40
2016,08,23,04,26,15.40
2016,08,23,04,27,15.40
2016,08,23,04,28,15.40
2016,08,23,04,29,15.40
2016,08,23,04,30,15.40
2016,08,23,04,31,15.40
2016,08,23,04,32,15.30
2016,08,23,04,33,15.30
2016,08,23,04,34,15.30
2016,08,23,04,35,15.30
2016,08,23,04,36,15.30
2016,08,23,04,37,15.30
2016,08,23,04,38,15.30
2016,08,23,04,39,15.30
2016,08,23,04,40,15.30
2016,08,23,04,41,15.30
2016,08,23,04,42,15.30
2016,08,23,04,43,15.30
2016,08,23,04,44,15.30
2016,08,23,04,45,15.30
2016,08,23,04,46,15.30
2016,08,23,04,47,15.30
2016,08,23,04,48,15.30
2016,08,23,04,49,15.30
2016,08,23,04,50,15.30
2016,08,23,04,51,15.40
2016,08,23,04,52,15.40
2016,08,23,04,53,15.40
2016,08,23,04,54,15.40
2016,08,23,04,55,15.40
2016,08,23,04,56,15.40
2016,08,23,04,57,15.40
2016,08,23,04,58,15.40
2016,08,23,04,59,15.40
2016,08,23,05,00,15.40
2016,08,23,05,01,15.40
2016,08,23,05,02,15.40
2016,08,23,05,03,15.30
2016,08,23,05,04,15.30
2016,08,23,05,05,15.30
2016,08,23,05,06,15.30
2016,08,23,05,07,15.20
2016,08,23,05,08,15.20
2016,08,23,05,09,15.20
2016,08,23,05,10,15.20
2016,08,23,05,11,15.20
2016,08,23,05,12,15.10
2016,08,23,05,13,15.10
2016,08,23,05,14,15.10
2016,08,23,05,15,15.00
2016,08,23,05,16,15.00
2016,08,23,05,17,14.90
2016,08,23,05,18,14.90
2016,08,23,05,19,14.90
2016,08,23,05,20,14.90
2016,08,23,05,21,14.90
2016,08,23,05,22,14.90
2016,08,23,05,23,14.90
2016,08,23,05,24,14.80
2016,08,23,05,25,14.80
2016,08,23,05,26,14.80
2016,08,23,05,27,14.80
2016,08,23,05,28,14.80
2016,08,23,05,29,14.70
2016,08,23,05,30,14.70
2016,08,23,05,31,14.70
2016,08,23,05,32,14.70
2016,08,23,05,33,14.70
2016,08,23,05,34,14.70
2016,08,23,05,35,14.70
2016,08,23,05,36,14.70
2016,08,23,05,37,14.70
2016,08,23,05,38,14.70
2016,08,23,05,39,14.70
2016,08,23,05,40,14.70
2016,08,23,05,41,14.60
2016,08,23,05,42,14.60
2016,08,23,05,43,14.60
2016,08,23,05,44,14.60
2016,08,23,05,45,14.60
2016,08,23,05,46,14.60
2016,08,23,05,47,14.60
2016,08,23,05,48,14.60
2016,08,23,05,49,14.60
2016,08,23,05,50,14.60
2016,08,23,05,51,14.60
2016,08,23,05,52,14.60
2016,08,23,05,53,14.60
2016,08,23,05,54,14.60
2016,08,23,05,55,14.60
2016,08,23,05,56,14.60
2016,08,23,05,57,14.60
2016,08,23,05,58,14.60
2016,08,23,05,59,14.60
2016,08,23,06,00,14.60
2016,08,23,06,01,14.60
2016,08,23,06,02,14.60
2016,08,23,06,03,14.60
2016,08,23,06,04,14.60
2016,08,23,06,05,14.60
2016,08,23,06,06,14.60
2016,08,23,06,07,14.60
2016,08,23,06,08,14.60
2016,08,23,06,09,14.60
2016,08,23,06,10,14.60
2016,08,23,06,11,14.60
2016,08,23,06,12,14.60
2016,08,23,06,13,14.60
2016,08,23,06,14,14.50
2016,08,23,06,15,14.50
2016,08,23,06,16,14.50
2016,08,23,06,17,14.50
2016,08,23,06,18,14.50
2016,08,23,06,19,14.40
2016,08,23,06,20,14.40
2016,08,23,06,21,14.40
2016,08,23,06,22,14.40
2016,08,23,06,23,14.40
2016,08,23,06,24,14.40
2016,08,23,06,25,14.40
2016,08,23,06,26,14.40
2016,08,23,06,27,14.40
2016,08,23,06,28,14.40
2016,08,23,06,29,14.30
2016,08,23,06,30,14.30
2016,08,23,06,31,14.30
2016,08,23,06,32,14.30
2016,08,23,06,33,14.30
2016,08,23,06,34,14.30
2016,08,23,06,35,14.30
2016,08,23,06,36,14.40
2016,08,23,06,37,14.40
2016,08,23,06,38,14.40
2016,08,23,06,39,14.40
2016,08,23,06,40,14.40
2016,08,23,06,41,14.40
2016,08,23,06,42,14.40
2016,08,23,06,43,14.40
2016,08,23,06,44,14.40
2016,08,23,06,45,14.40
2016,08,23,06,46,14.40
2016,08,23,06,47,14.40
2016,08,23,06,48,14.50
2016,08,23,06,49,14.50
2016,08,23,06,50,14.50
2016,08,23,06,51,14.50
2016,08,23,06,52,14.50
2016,08,23,06,53,14.50
2016,08,23,06,54,14.50
2016,08,23,06,55,14.50
2016,08,23,06,56,14.60
2016,08,23,06,57,14.60
2016,08,23,06,58,14.60
2016,08,23,06,59,14.60
2016,08,23,07,00,14.60
2016,08,23,07,01,14.70
2016,08,23,07,02,14.70
2016,08,23,07,03,14.70
2016,08,23,07,04,14.70
2016,08,23,07,05,14.70
2016,08,23,07,06,14.70
2016,08,23,07,07,14.80
2016,08,23,07,08,14.80
2016,08,23,07,09,14.80
2016,08,23,07,10,14.80
2016,08,23,07,11,14.80
2016,08,23,07,12,14.80
2016,08,23,07,13,14.80
2016,08,23,07,14,14.80
2016,08,23,07,15,14.80
2016,08,23,07,16,14.80
2016,08,23,07,17,14.80
2016,08,23,07,18,14.90
2016,08,23,07,19,14.90
2016,08,23,07,20,14.90
2016,08,23,07,21,14.90
2016,08,23,07,22,14.90
2016,08,23,07,23,14.90
2016,08,23,07,24,14.90
2016,08,23,07,25,14.90
2016,08,23,07,26,14.90
2016,08,23,07,27,15.00
2016,08,23,07,28,15.00
2016,08,23,07,29,15.10
2016,08,23,07,30,15.10
2016,08,23,07,31,15.10
2016,08,23,07,32,15.20
2016,08,23,07,33,15.20
2016,08,23,07,34,15.20
2016,08,23,07,35,15.30
2016,08,23,07,36,15.30
2016,08,23,07,37,15.30
2016,08,23,07,38,15.40
2016,08,23,07,39,15.40
2016,08,23,07,40,15.40
2016,08,23,07,41,15.40
2016,08,23,07,42,15.50
2016,08,23,07,43,15.50
2016,08,23,07,44,15.50
2016,08,23,07,45,15.60
2016,08,23,07,46,15.60
2016,08,23,07,47,15.60
2016,08,23,07,48,15.60
2016,08,23,07,49,15.70
2016,08,23,07,50,15.70
2016,08,23,07,51,15.70
2016,08,23,07,52,15.70
2016,08,23,07,53,15.70
2016,08,23,07,54,15.70
2016,08,23,07,55,15.80
2016,08,23,07,56,15.80
2016,08,23,07,57,15.80
2016,08,23,07,58,15.80
2016,08,23,07,59,15.80
2016,08,23,08,00,15.80
2016,08,23,08,01,15.90
2016,08,23,08,02,15.90
2016,08,23,08,03,15.90
2016,08,23,08,04,15.90
2016,08,23,08,05,15.90
2016,08,23,08,06,16.00
2016,08,23,08,07,16.00
2016,08,23,08,08,16.10
2016,08,23,08,09,16.10
2016,08,23,08,10,16.10
2016,08,23,08,11,16.10
2016,08,23,08,12,16.10
2016,08,23,08,13,16.10
2016,08,23,08,14,16.10
2016,08,23,08,15,16.10
2016,08,23,08,16,16.10
2016,08,23,08,17,16.20
2016,08,23,08,18,16.20
2016,08,23,08,19,16.20
2016,08,23,08,20,16.20
2016,08,23,08,21,16.30
2016,08,23,08,22,16.30
2016,08,23,08,23,16.30
2016,08,23,08,24,16.30
2016,08,23,08,25,16.40
2016,08,23,08,26,16.40
2016,08,23,08,27,16.40
2016,08,23,08,28,16.40
2016,08,23,08,29,16.40
2016,08,23,08,30,16.40
2016,08,23,08,31,16.40
2016,08,23,08,32,16.50
2016,08,23,08,33,16.50
2016,08,23,08,34,16.50
2016,08,23,08,35,16.50
2016,08,23,08,36,16.60
2016,08,23,08,37,16.60
2016,08,23,08,38,16.60
2016,08,23,08,39,16.60
2016,08,23,08,40,16.60
2016,08,23,08,41,16.60
2016,08,23,08,42,16.60
2016,08,23,08,43,16.70
2016,08,23,08,44,16.70
2016,08,23,08,45,16.70
2016,08,23,08,46,16.70
2016,08,23,08,47,16.70
2016,08,23,08,48,16.70
2016,08,23,08,49,16.80
2016,08,23,08,50,16.80
2016,08,23,08,51,16.80
2016,08,23,08,52,16.80
2016,08,23,08,53,16.80
2016,08,23,08,54,16.90
2016,08,23,08,55,16.90
2016,08,23,08,56,16.90
2016,08,23,08,57,16.90
2016,08,23,08,58,16.90
2016,08,23,08,59,17.00
2016,08,23,09,00,17.00
2016,08,23,09,01,17.10
2016,08,23,09,02,17.10
2016,08,23,09,03,17.10
2016,08,23,09,04,17.10
2016,08,23,09,05,17.10
2016,08,23,09,06,17.20
2016,08,23,09,07,17.20
2016,08,23,09,08,17.20
2016,08,23,09,09,17.20
2016,08,23,09,10,17.20
2016,08,23,09,11,17.30
2016,08,23,09,12,17.30
2016,08,23,09,13,17.30
2016,08,23,09,14,17.30
2016,08,23,09,15,17.30
2016,08,23,09,16,17.40
2016,08,23,09,17,17.40
2016,08,23,09,18,17.40
2016,08,23,09,19,17.40
2016,08,23,09,20,17.40
2016,08,23,09,21,17.40
2016,08,23,09,22,17.40
2016,08,23,09,23,17.40
2016,08,23,09,24,17.50
2016,08,23,09,25,17.50
2016,08,23,09,26,17.60
2016,08,23,09,27,17.60
2016,08,23,09,28,17.60
2016,08,23,09,29,17.60
2016,08,23,09,30,17.60
2016,08,23,09,31,17.70
2016,08,23,09,32,17.70
2016,08,23,09,33,17.70
2016,08,23,09,34,17.70
2016,08,23,09,35,17.70
2016,08,23,09,36,17.80
2016,08,23,09,37,17.80
2016,08,23,09,38,17.80
2016,08,23,09,39,17.80
2016,08,23,09,40,17.80
2016,08,23,09,41,17.80
2016,08,23,09,42,17.80
2016,08,23,09,43,17.80
2016,08,23,09,44,17.80
2016,08,23,09,45,17.80
2016,08,23,09,46,17.80
2016,08,23,09,47,17.90
2016,08,23,09,48,17.90
2016,08,23,09,49,17.90
2016,08,23,09,50,17.90
2016,08,23,09,51,18.00
2016,08,23,09,52,18.00
2016,08,23,09,53,18.10
2016,08,23,09,54,18.10
2016,08,23,09,55,18.20
2016,08,23,09,56,18.20
2016,08,23,09,57,18.20
2016,08,23,09,58,18.20
2016,08,23,09,59,18.20
2016,08,23,10,00,18.20
2016,08,23,10,01,18.30
2016,08,23,10,02,18.30
2016,08,23,10,03,18.30
2016,08,23,10,04,18.30
2016,08,23,10,05,18.30
2016,08,23,10,06,18.40
2016,08,23,10,07,18.40
2016,08,23,10,08,18.40
2016,08,23,10,09,18.40
2016,08,23,10,10,18.40
2016,08,23,10,11,18.30
2016,08,23,10,12,18.30
2016,08,23,10,13,18.30
2016,08,23,10,14,18.30
2016,08,23,10,15,18.30
2016,08,23,10,16,18.30
2016,08,23,10,17,18.30
2016,08,23,10,18,18.30
2016,08,23,10,19,18.30
2016,08,23,10,20,18.20
2016,08,23,10,21,18.20
2016,08,23,10,22,18.20
2016,08,23,10,23,18.20
2016,08,23,10,24,18.20
2016,08,23,10,25,18.20
2016,08,23,10,26,18.30
2016,08,23,10,27,18.30
2016,08,23,10,28,18.40
2016,08,23,10,29,18.50
2016,08,23,10,30,18.50
2016,08,23,10,31,18.50
2016,08,23,10,32,18.50
2016,08,23,10,33,18.60
2016,08,23,10,34,18.60
2016,08,23,10,35,18.60
2016,08,23,10,36,18.60
2016,08,23,10,37,18.60
2016,08,23,10,38,18.70
2016,08,23,10,39,18.70
2016,08,23,10,40,18.70
2016,08,23,10,41,18.70
2016,08,23,10,42,18.70
2016,08,23,10,43,18.70
2016,08,23,10,44,18.70
2016,08,23,10,45,18.70
2016,08,23,10,46,18.70
2016,08,23,10,47,18.70
2016,08,23,10,48,18.70
2016,08,23,10,49,18.70
2016,08,23,10,50,18.70
2016,08,23,10,51,18.80
2016,08,23,10,52,18.80
2016,08,23,10,53,18.80
2016,08,23,10,54,18.80
2016,08,23,10,55,18.80
2016,08,23,10,56,18.80
2016,08,23,10,57,18.80
2016,08,23,10,58,18.80
2016,08,23,10,59,18.80
2016,08,23,11,00,18.80
2016,08,23,11,01,18.80
2016,08,23,11,02,18.80
2016,08,23,11,03,18.80
2016,08,23,11,04,18.80
2016,08,23,11,05,18.80
2016,08,23,11,06,18.80
2016,08,23,11,07,18.90
2016,08,23,11,08,18.90
2016,08,23,11,09,18.90
2016,08,23,11,10,18.90
2016,08,23,11,11,19.00
2016,08,23,11,12,19.00
2016,08,23,11,13,19.10
2016,08,23,11,14,19.00
2016,08,23,11,15,19.00
2016,08,23,11,16,19.10
2016,08,23,11,17,19.10
2016,08,23,11,18,19.10
2016,08,23,11,19,19.20
2016,08,23,11,20,19.20
2016,08,23,11,21,19.20
2016,08,23,11,22,19.30
2016,08,23,11,23,19.30
2016,08,23,11,24,19.30
2016,08,23,11,25,19.40
2016,08,23,11,26,19.40
2016,08,23,11,27,19.40
2016,08,23,11,28,19.40
2016,08,23,11,29,19.50
2016,08,23,11,30,19.50
2016,08,23,11,31,19.50
2016,08,23,11,32,19.50
2016,08,23,11,33,19.60
2016,08,23,11,34,19.60
2016,08,23,11,35,19.50
2016,08,23,11,36,19.50
2016,08,23,11,37,19.40
2016,08,23,11,38,19.30
2016,08,23,11,39,19.30
2016,08,23,11,40,19.20
2016,08,23,11,41,19.10
2016,08,23,11,42,19.10
2016,08,23,11,43,19.00
2016,08,23,11,44,19.00
2016,08,23,11,45,19.00
2016,08,23,11,46,19.00
2016,08,23,11,47,19.00
2016,08,23,11,48,19.10
2016,08,23,11,49,19.10
2016,08,23,11,50,19.20
2016,08,23,11,51,19.20
2016,08,23,11,52,19.20
2016,08,23,11,53,19.10
2016,08,23,11,54,19.10
2016,08,23,11,55,19.10
2016,08,23,11,56,19.00
2016,08,23,11,57,19.00
2016,08,23,11,58,19.10
2016,08,23,11,59,19.10
2016,08,23,12,00,19.10
2016,08,23,12,01,19.20
2016,08,23,12,02,19.20
2016,08,23,12,03,19.20
2016,08,23,12,04,19.30
2016,08,23,12,05,19.30
2016,08,23,12,06,19.30
2016,08,23,12,07,19.30
2016,08,23,12,08,19.30
2016,08,23,12,09,19.30
2016,08,23,12,10,19.30
2016,08,23,12,11,19.40
2016,08,23,12,12,19.40
2016,08,23,12,13,19.40
2016,08,23,12,14,19.50
2016,08,23,12,15,19.50
2016,08,23,12,16,19.50
2016,08,23,12,17,19.50
2016,08,23,12,18,19.50
2016,08,23,12,19,19.40
2016,08,23,12,20,19.40
2016,08,23,12,21,19.40
2016,08,23,12,22,19.50
2016,08,23,12,23,19.50
2016,08,23,12,24,19.60
2016,08,23,12,25,19.60
2016,08,23,12,26,19.60
2016,08,23,12,27,19.60
2016,08,23,12,28,19.60
2016,08,23,12,29,19.70
2016,08,23,12,30,19.70
2016,08,23,12,31,19.60
2016,08,23,12,32,19.50
2016,08,23,12,33,19.60
2016,08,23,12,34,19.60
2016,08,23,12,35,19.60
2016,08,23,12,36,19.60
2016,08,23,12,37,19.60
2016,08,23,12,38,19.60
2016,08,23,12,39,19.60
2016,08,23,12,40,19.70
2016,08,23,12,41,19.70
2016,08,23,12,42,19.70
2016,08,23,12,43,19.70
2016,08,23,12,44,19.80
2016,08,23,12,45,19.90
2016,08,23,12,46,19.90
2016,08,23,12,47,20.00
2016,08,23,12,48,20.10
2016,08,23,12,49,20.20
2016,08,23,12,50,20.30
2016,08,23,12,51,20.30
2016,08,23,12,52,20.40
2016,08,23,12,53,20.50
2016,08,23,12,54,20.60
2016,08,23,12,55,20.60
2016,08,23,12,56,20.70
2016,08,23,12,57,20.70
2016,08,23,12,58,20.70
2016,08,23,12,59,20.70
2016,08,23,13,00,20.80
2016,08,23,13,01,20.90
2016,08,23,13,02,20.90
2016,08,23,13,03,21.00
2016,08,23,13,04,21.10
2016,08,23,13,05,21.10
2016,08,23,13,06,21.20
2016,08,23,13,07,21.20
2016,08,23,13,08,21.20
2016,08,23,13,09,21.20
2016,08,23,13,10,21.20
2016,08,23,13,11,21.20
2016,08,23,13,12,21.20
2016,08,23,13,13,21.20
2016,08,23,13,14,21.20
2016,08,23,13,15,21.20
2016,08,23,13,16,21.20
2016,08,23,13,17,21.20
2016,08,23,13,18,21.10
2016,08,23,13,19,21.10
2016,08,23,13,20,21.00
2016,08,23,13,21,21.00
2016,08,23,13,22,21.00
2016,08,23,13,23,21.00
2016,08,23,13,24,21.00
2016,08,23,13,25,20.90
2016,08,23,13,26,20.90
2016,08,23,13,27,20.90
2016,08,23,13,28,20.90
2016,08,23,13,29,20.90
2016,08,23,13,30,20.90
2016,08,23,13,31,20.90
2016,08,23,13,32,20.90
2016,08,23,13,33,20.90
2016,08,23,13,34,20.90
2016,08,23,13,35,20.90
2016,08,23,13,36,20.90
2016,08,23,13,37,20.90
2016,08,23,13,38,20.80
2016,08,23,13,39,20.80
2016,08,23,13,40,20.70
2016,08,23,13,41,20.70
2016,08,23,13,42,20.70
2016,08,23,13,43,20.70
2016,08,23,13,44,20.70
2016,08,23,13,45,20.70
2016,08,23,13,46,20.70
2016,08,23,13,47,20.70
2016,08,23,13,48,20.70
2016,08,23,13,49,20.70
2016,08,23,13,50,20.70
2016,08,23,13,51,20.70
2016,08,23,13,52,20.70
2016,08,23,13,53,20.70
2016,08,23,13,54,20.80
2016,08,23,13,55,20.80
2016,08,23,13,56,20.80
2016,08,23,13,57,20.90
2016,08,23,13,58,20.90
2016,08,23,13,59,21.10
2016,08,23,14,00,21.20
2016,08,23,14,01,21.30
2016,08,23,14,02,21.40
2016,08,23,14,03,21.50
2016,08,23,14,04,21.70
2016,08,23,14,05,21.80
2016,08,23,14,06,21.90
2016,08,23,14,07,21.90
2016,08,23,14,08,22.00
2016,08,23,14,09,22.10
2016,08,23,14,10,22.10
2016,08,23,14,11,22.20
2016,08,23,14,12,22.30
2016,08,23,14,13,22.40
2016,08,23,14,14,22.40
2016,08,23,14,15,22.50
2016,08,23,14,16,22.60
2016,08,23,14,17,22.70
2016,08,23,14,18,22.80
2016,08,23,14,19,22.80
2016,08,23,14,20,22.90
2016,08,23,14,21,23.00
2016,08,23,14,22,23.00
2016,08,23,14,23,23.10
2016,08,23,14,24,23.10
2016,08,23,14,25,23.00
2016,08,23,14,26,23.00
2016,08,23,14,27,23.00
2016,08,23,14,28,23.00
2016,08,23,14,29,22.90
2016,08,23,14,30,22.90
2016,08,23,14,31,22.90
2016,08,23,14,32,22.90
2016,08,23,14,33,22.90
2016,08,23,14,34,22.80
2016,08,23,14,35,22.80
2016,08,23,14,36,22.80
2016,08,23,14,37,22.80
2016,08,23,14,38,22.80
2016,08,23,14,39,22.80
2016,08,23,14,40,22.90
2016,08,23,14,41,22.90
2016,08,23,14,42,23.00
2016,08,23,14,43,23.00
2016,08,23,14,44,23.10
2016,08,23,14,45,23.10
2016,08,23,14,46,23.20
2016,08,23,14,47,23.30
2016,08,23,14,48,23.40
2016,08,23,14,49,23.50
2016,08,23,14,50,23.60
2016,08,23,14,51,23.70
2016,08,23,14,52,23.80
2016,08,23,14,53,23.90
2016,08,23,14,54,24.00
2016,08,23,14,55,24.00
2016,08,23,14,56,24.00
2016,08,23,14,57,24.00
2016,08,23,14,58,23.90
2016,08,23,14,59,23.90
2016,08,23,15,00,23.80
2016,08,23,15,01,23.60
2016,08,23,15,02,23.50
2016,08,23,15,03,23.30
2016,08,23,15,04,23.20
2016,08,23,15,05,23.10
2016,08,23,15,06,23.10
2016,08,23,15,07,23.10
2016,08,23,15,08,23.10
2016,08,23,15,09,23.00
2016,08,23,15,10,23.00
2016,08,23,15,11,23.00
2016,08,23,15,12,23.00
2016,08,23,15,13,23.00
2016,08,23,15,14,23.00
2016,08,23,15,15,23.00
2016,08,23,15,16,23.10
2016,08,23,15,17,23.20
2016,08,23,15,18,23.20
2016,08,23,15,19,23.20
2016,08,23,15,20,23.20
2016,08,23,15,21,23.10
2016,08,23,15,22,23.10
2016,08,23,15,23,23.10
2016,08,23,15,24,23.20
2016,08,23,15,25,23.20
2016,08,23,15,26,23.30
2016,08,23,15,27,23.30
2016,08,23,15,28,23.40
2016,08,23,15,29,23.50
2016,08,23,15,30,23.50
2016,08,23,15,31,23.50
2016,08,23,15,32,23.60
2016,08,23,15,33,23.60
2016,08,23,15,34,23.50
2016,08,23,15,35,23.40
2016,08,23,15,36,23.30
2016,08,23,15,37,23.20
2016,08,23,15,38,23.20
2016,08,23,15,39,23.20
2016,08,23,15,40,23.20
2016,08,23,15,41,23.30
2016,08,23,15,42,23.30
2016,08,23,15,43,23.30
2016,08,23,15,44,23.30
2016,08,23,15,45,23.40
2016,08,23,15,46,23.40
2016,08,23,15,47,23.50
2016,08,23,15,48,23.60
2016,08,23,15,49,23.60
2016,08,23,15,50,23.70
2016,08,23,15,51,23.70
2016,08,23,15,52,23.80
2016,08,23,15,53,23.90
2016,08,23,15,54,23.90
2016,08,23,15,55,23.90
2016,08,23,15,56,23.90
2016,08,23,15,57,23.80
2016,08,23,15,58,23.70
2016,08,23,15,59,23.60
2016,08,23,16,00,23.60
2016,08,23,16,01,23.50
2016,08,23,16,02,23.50
2016,08,23,16,03,23.40
2016,08,23,16,04,23.40
2016,08,23,16,05,23.40
2016,08,23,16,06,23.40
2016,08,23,16,07,23.50
2016,08,23,16,08,23.50
2016,08,23,16,09,23.60
2016,08,23,16,10,23.60
2016,08,23,16,11,23.60
2016,08,23,16,12,23.60
2016,08,23,16,13,23.60
2016,08,23,16,14,23.60
2016,08,23,16,15,23.50
2016,08,23,16,16,23.50
2016,08,23,16,17,23.60
2016,08,23,16,18,23.60
2016,08,23,16,19,23.60
2016,08,23,16,20,23.70
2016,08,23,16,21,23.70
2016,08,23,16,22,23.80
2016,08,23,16,23,23.80
2016,08,23,16,24,23.80
2016,08,23,16,25,23.80
2016,08,23,16,26,23.90
2016,08,23,16,27,23.90
2016,08,23,16,28,23.90
2016,08,23,16,29,23.90
2016,08,23,16,30,23.90
2016,08,23,16,31,23.90
2016,08,23,16,32,24.00
2016,08,23,16,33,24.00
2016,08,23,16,34,24.00
2016,08,23,16,35,24.00
2016,08,23,16,36,24.00
2016,08,23,16,37,24.00
2016,08,23,16,38,24.10
2016,08,23,16,39,24.10
2016,08,23,16,40,24.20
2016,08,23,16,41,24.20
2016,08,23,16,42,24.20
2016,08,23,16,43,24.20
2016,08,23,16,44,24.30
2016,08,23,16,45,24.30
2016,08,23,16,46,24.30
2016,08,23,16,47,24.40
2016,08,23,16,48,24.50
2016,08,23,16,49,24.60
2016,08,23,16,50,24.70
2016,08,23,16,51,24.80
2016,08,23,16,52,24.80
2016,08,23,16,53,24.80
2016,08,23,16,54,24.80
2016,08,23,16,55,24.90
2016,08,23,16,56,24.90
2016,08,23,16,57,25.00
2016,08,23,16,58,25.00
2016,08,23,16,59,25.00
2016,08,23,17,00,24.90
2016,08,23,17,01,24.70
2016,08,23,17,02,24.50
2016,08,23,17,03,24.40
2016,08,23,17,04,24.20
2016,08,23,17,05,24.20
2016,08,23,17,06,24.10
2016,08,23,17,07,24.10
2016,08,23,17,08,24.10
2016,08,23,17,09,24.10
2016,08,23,17,10,24.20
2016,08,23,17,11,24.30
2016,08,23,17,12,24.40
2016,08,23,17,13,24.50
2016,08,23,17,14,24.60
2016,08,23,17,15,24.60
2016,08,23,17,16,24.60
2016,08,23,17,17,24.60
2016,08,23,17,18,24.50
2016,08,23,17,19,24.50